Location: Carri�res
(48.9069°N, 2.1792°E)
Time: 12:01:28
(UTC+00:00)

Meteor 1-24 Rocket - Pass Details

Date: 17 January 2021
Orbit: 790 x 927 km, 81.3° (Epoch: 25 February)

Event Time Altitude Azimuth Distance (km) Brightness Sun altitude
Rises 18:09:04 0° 192° (SSW) 3,333 7.1 -16.6°
Reaches altitude 10° 18:11:28 10° 193° (SSW) 2,390 6.4 -17.0°
Maximum altitude 18:16:51 82° 282° (WNW) 812 3.6 -17.8°
Drops below altitude 10° 18:22:12 10° 10° (N) 2,369 5.8 -18.7°
Sets 18:24:34 0° 12° (NNE) 3,302 6.6 -19.1°
